Regional Weather Roundup
Issued by NWS

Home | Current Version | Previous Version | Graphics & Text | Print | Product List | Glossary On
Versions: 1 2 3 4 5 6 7 8 9 10 11 12 13 14 15 16 17 18 19 20 21 22 23 24 25 26 27 28
000
ASUS45 KCYS 301610
RWRWY

WYOMING REGIONAL WEATHER ROUNDUP
NATIONAL WEATHER SERVICE CHEYENNE WY
1000 AM MDT MON MAY 30 2016

NOTE:  "FAIR" INDICATES FEW OR NO CLOUDS BELOW 12,000 FEET
WITH NO SIGNIFICANT WEATHER AND/OR OBSTRUCTIONS TO VISIBILITY.

WYZ001-301700-
YELLOWSTONE NATIONAL PARK

CITY           SKY/WX    TMP DP  RH WIND       PRES   REMARKS
LK YELLOWSTONE   N/A     49  35  58 VRB6      30.17F
W YELLOWSTONE  NOT AVBL

$$
WYZ002>013-054>058-071-098>099-301700-
NORTHERN WYOMING

CITY           SKY/WX    TMP DP  RH WIND       PRES   REMARKS
JACKSON        PTSUNNY   57  36  44 W7G21     30.13S
CODY           FAIR      57  46  67 N10       30.04S
GREYBULL       FAIR      66  42  41 NW15      29.98S
WORLAND        FAIR      63  42  46 N7        30.01S
SHERIDAN       FAIR      58  47  66 NW7       30.02S
BUFFALO          N/A     55  44  66 N21G30    30.03R
GILLETTE       PTSUNNY   56  46  69 NW15      29.99R
HULETT         FAIR      63  46  55 W8        29.95R
NEWCASTLE      FAIR      68  37  32 NW7       29.95F

$$
WYZ014>020-022>026-101>103-301700-
CENTRAL WYOMING

CITY           SKY/WX    TMP DP  RH WIND       PRES   REMARKS
BIG PINEY      FAIR      54  40  59 CALM      30.18S
PINEDALE       FAIR      52  41  66 CALM      30.19S
DUBOIS         PTSUNNY   55  25  30 W20       30.11F
LANDER         FAIR      62  38  40 E3        30.05F
RIVERTON       FAIR      63  39  41 MISG      30.06S
CASPER         CLOUDY    62  40  44 W13       30.03R
DOUGLAS          N/A    N/A N/A N/A MISG      30.00S

$$
WYZ021-027>030-104>119-301700-
SOUTHERN WYOMING

CITY           SKY/WX    TMP DP  RH WIND       PRES   REMARKS
EVANSTON       FAIR      56  42  59 W8        30.21S
KEMMERER         N/A     54  41  62 W12       30.20F
FORT BRIDGER   SUNNY     59  43  55 NW13      30.22F
ROCK SPRINGS   FAIR      56  38  50 W15       30.17F
DIXON          FAIR      58  40  52 W6        30.20S
RAWLINS        PTSUNNY   56  38  50 W18       30.15S
SARATOGA       FAIR      59  37  44 W15G25    30.17F
LARAMIE        FAIR      59  39  47 NE12      30.13S
CHEYENNE       FAIR      69  38  32 NW5       30.06F
TORRINGTON     FAIR      68  45  43 VRB3      29.97F
PINE BLUFFS    FAIR      70  41  35 SW8       30.03F

$$




USA.gov is the U.S. government's official web portal to all federal, state and local government web resources and services.